Location: La Brionne
(46.1728°N, 1.7849°E)
Time: 13:00:51
(UTC+00:00)

Cosmos 2219 Rocket - Pass Details

Date: 27 October 2021
Orbit: 826 x 848 km, 71.0° (Epoch: 01 December)

Event Time Altitude Azimuth Distance (km) Brightness Sun altitude
Rises 17:22:08 0° 152° (SSE) 3,354 5.1 -6.9°
Reaches altitude 10° 17:25:40 10° 129° (SE) 2,429 4.2 -7.5°
Maximum altitude 17:28:34 15° 97° (E) 2,132 3.7 -8.0°
Drops below altitude 10° 17:31:28 10° 66° (ENE) 2,444 4.0 -8.5°
Enters shadow 17:31:52 - 62° (ENE) 2,530 4.1 -8.5°
